Date,TemperatureHighF,TemperatureAvgF,TemperatureLowF,DewpointHighF,DewpointAvgF,DewpointLowF,HumidityHigh,HumidityAvg,HumidityLow,PressureMaxIn,PressureMinIn,WindSpeedMaxMPH,WindSpeedAvgMPH,GustSpeedMaxMPH,PrecipitationSumIn
2013-1-1,30.5,24.7,20.4,27.7,20.4,15.3,90,84,70,30.17,30.05,10,3,14,0.01
2013-1-2,22.5,20.2,19.2,17.8,15.6,13.5,88,82,72,30.35,30.16,10,4,13,0.00
2013-1-3,26.1,21.7,16.2,23.1,17.3,11.6,89,83,73,30.34,30.19,15,5,20,0.00
2013-1-4,31.2,27.0,25.4,22.9,20.1,16.8,88,75,61,30.28,30.13,18,7,25,0.04
2013-1-5,29.4,26.7,25.2,23.5,22.0,20.0,86,82,77,30.47,30.24,11,4,16,0.00
2013-1-6,33.3,31.7,29.3,30.4,28.0,23.4,92,86,78,30.25,30.06,11,4,17,0.01
2013-1-7,32.8,28.8,24.8,30.5,24.6,20.7,91,84,78,30.55,30.25,12,4,19,0.01
2013-1-8,39.9,30.1,22.3,25.4,22.4,19.3,88,74,53,30.47,30.37,9,3,15,0.17
2013-1-9,46.0,37.0,28.8,36.2,28.6,24.3,85,72,53,30.55,30.20,20,5,25,0.18
2013-1-10,39.3,33.3,27.0,30.5,27.4,23.6,92,79,67,30.73,30.49,7,1,11,0.00
2013-1-11,45.0,41.3,36.7,43.4,34.0,21.3,95,77,45,30.49,30.04,17,5,22,0.19
2013-1-12,54.7,49.8,44.5,51.2,47.6,42.9,95,92,85,30.15,30.05,13,3,14,0.00
2013-1-13,62.4,56.2,51.1,56.0,52.1,49.0,94,86,78,30.05,29.84,12,3,24,0.05
2013-1-14,56.3,31.5,25.7,53.3,26.8,21.1,92,83,71,30.50,29.87,14,4,24,0.05
2013-1-15,30.9,26.8,24.4,22.1,20.1,18.3,83,76,62,30.55,30.26,5,1,7,0.00
2013-1-16,35.4,31.0,27.6,29.9,25.0,21.9,86,78,67,30.26,29.96,13,3,19,0.00
2013-1-17,31.8,28.9,20.7,27.3,24.3,17.7,92,83,70,30.26,30.05,17,4,25,0.00
2013-1-18,28.9,21.2,15.3,17.6,12.7,8.3,88,70,58,30.60,30.26,18,6,22,0.01
2013-1-19,47.8,40.0,29.1,29.9,23.7,15.8,59,52,43,30.28,29.78,19,8,24,0.00
2013-1-20,44.8,27.3,17.9,31.8,18.9,11.4,87,72,49,30.21,29.67,29,8,42,0.01
2013-1-21,19.7,16.7,11.6,14.9,11.9,6.9,87,81,62,30.20,30.02,15,4,17,0.00
2013-1-22,11.6,6.3,4.4,8.2,2.2,-0.1,86,83,75,30.38,30.08,15,5,21,0.00
2013-1-23,12.2,7.5,4.5,5.9,3.1,0.7,85,82,72,30.41,30.25,10,3,16,0.00
2013-1-24,14.2,6.6,-1.6,10.2,2.4,-5.5,95,83,74,30.72,30.25,9,1,12,0.01
2013-1-25,13.2,7.8,-0.1,9.6,4.1,-3.8,88,85,77,30.70,30.24,7,1,9,0.00
2013-1-26,22.6,16.4,11.1,18.5,12.9,8.0,96,86,80,30.59,30.26,4,0,6,0.00
2013-1-27,27.9,22.7,16.0,19.5,16.6,12.8,88,78,64,30.70,30.47,10,2,11,0.00
2013-1-28,44.0,35.7,25.4,42.4,32.9,17.0,94,90,64,30.47,30.05,14,5,22,0.80
2013-1-29,56.3,45.4,37.1,52.1,43.8,35.5,95,94,82,30.16,29.85,10,3,18,0.41
2013-1-30,61.2,56.6,47.9,54.0,51.2,43.3,92,82,71,29.84,29.16,19,8,28,0.39
2013-1-31,47.5,25.0,17.5,43.5,20.7,13.5,91,84,72,29.89,29.18,31,8,33,0.11
2013-2-1,18.1,15.1,9.2,14.3,11.7,4.8,89,86,81,30.40,29.89,10,4,18,0.00
2013-2-2,16.9,13.3,9.3,13.4,9.2,4.2,88,83,77,30.40,30.12,11,4,17,0.00
2013-2-3,22.5,16.9,13.5,18.3,13.2,10.6,89,85,72,30.12,29.94,11,2,21,0.00
2013-2-4,21.1,17.3,13.7,16.5,13.7,10.2,89,85,80,30.15,30.04,9,2,14,0.00
2013-2-5,26.2,20.7,12.6,19.7,16.2,9.7,90,83,71,30.07,29.98,11,1,12,0.06
2013-2-6,26.3,21.8,10.9,22.8,16.7,7.8,90,81,63,30.50,30.05,9,3,13,0.01
2013-2-7,38.7,24.7,8.2,25.0,17.0,5.1,89,74,55,30.51,30.15,14,3,22,0.01
2013-2-8,34.8,27.9,14.8,32.3,24.3,11.6,92,86,75,30.24,29.85,16,7,23,0.00
2013-2-9,25.2,17.0,10.3,18.1,13.0,7.2,88,84,71,30.56,30.25,8,2,10,0.01
2013-2-10,45.4,25.2,3.3,22.5,13.7,-0.2,89,65,36,30.55,30.11,13,3,21,0.07
2013-2-11,48.1,36.8,30.2,42.1,31.2,21.9,93,81,53,30.11,29.73,15,6,26,0.12
2013-2-12,31.2,29.0,27.4,26.8,23.9,22.6,86,81,77,30.13,29.92,23,4,28,0.00
2013-2-13,39.7,29.7,24.8,25.6,23.5,21.4,88,78,54,30.05,29.82,8,1,9,0.01
2013-2-14,35.9,29.5,22.4,33.4,26.3,19.2,92,88,82,30.05,29.95,12,4,20,0.10
2013-2-15,35.9,29.5,21.3,32.7,23.4,14.3,92,78,69,30.19,29.96,14,4,22,0.01
2013-2-16,26.4,19.7,10.9,18.5,11.7,6.8,83,71,53,30.19,30.07,11,2,15,0.01
2013-2-17,16.3,14.0,9.8,12.6,9.4,6.0,88,82,71,30.38,30.07,15,4,20,0.00
2013-2-18,38.3,24.2,8.1,26.0,13.1,4.3,85,65,42,30.44,30.04,12,4,18,0.00
2013-2-19,42.4,31.8,18.3,36.2,26.7,13.7,92,82,56,30.04,29.70,16,6,27,0.24
2013-2-20,18.2,16.6,14.6,14.8,12.9,11.0,88,85,80,30.29,29.94,13,5,28,0.00
2013-2-21,21.1,16.9,13.8,14.4,12.8,10.3,88,84,74,30.55,30.27,11,4,16,0.01
2013-2-22,31.1,25.6,16.4,27.5,21.0,13.1,90,83,63,30.51,30.15,17,6,24,0.00
2013-2-23,35.0,30.0,26.3,31.5,27.1,22.0,92,89,82,30.15,30.00,13,3,19,0.00
2013-2-24,27.5,26.2,25.0,23.1,21.5,19.4,87,82,75,30.26,29.99,11,3,17,0.00
2013-2-25,35.8,27.7,20.7,24.3,21.7,17.9,91,79,61,30.38,30.26,7,1,9,0.01
2013-2-26,38.2,31.9,23.4,32.4,25.9,19.1,92,79,63,30.30,29.77,16,5,23,0.52
2013-2-27,37.4,35.0,32.8,35.3,32.5,31.0,93,90,85,29.77,29.68,10,3,20,0.39
2013-2-28,33.2,31.6,30.1,31.0,29.2,27.7,93,90,87,29.88,29.67,7,2,11,0.10
2013-3-1,30.0,25.8,23.2,28.0,23.0,19.9,92,89,84,30.09,29.89,9,2,12,0.01
2013-3-2,23.4,21.6,20.6,20.6,18.3,16.8,90,87,80,30.08,30.05,7,2,11,0.00
2013-3-3,24.0,21.1,18.9,20.0,17.4,15.4,89,86,75,30.10,30.02,12,4,19,0.00
2013-3-4,24.1,21.5,18.4,20.4,18.0,15.2,89,86,83,30.24,30.10,12,4,17,0.00
2013-3-5,37.0,27.4,20.3,26.7,21.6,16.7,95,79,65,30.25,29.96,11,2,14,0.12
2013-3-6,39.5,33.4,27.4,29.0,25.5,22.5,83,73,58,30.25,29.95,13,3,15,0.02
2013-3-7,33.9,32.0,29.5,30.2,29.0,27.5,92,89,84,30.40,30.23,8,2,11,0.01
2013-3-8,38.5,31.7,26.0,28.0,25.4,21.6,92,78,57,30.54,30.39,10,2,16,0.08
2013-3-9,50.0,34.1,20.4,30.6,24.4,17.9,92,71,40,30.56,30.31,6,1,10,0.01
2013-3-10,63.5,51.2,41.2,33.2,27.4,22.3,51,40,31,30.32,30.08,17,5,20,0.00
2013-3-11,58.9,51.3,45.1,43.0,32.1,27.8,89,49,36,30.09,29.74,22,6,26,0.15
2013-3-12,45.1,35.1,30.7,42.2,32.0,27.3,92,88,80,30.05,29.79,10,3,14,0.30
2013-3-13,31.7,27.7,21.6,27.3,22.6,17.3,90,81,70,30.15,29.99,15,4,22,0.03
2013-3-14,28.2,24.3,20.6,20.5,17.1,14.4,90,74,59,30.27,30.15,18,6,21,0.01
2013-3-15,32.6,28.4,18.6,29.9,24.6,15.1,91,86,76,30.24,29.96,14,2,17,0.01
2013-3-16,30.2,27.4,23.5,27.6,23.0,18.8,90,83,75,30.11,29.87,9,1,10,0.00
2013-3-17,30.7,24.7,18.3,21.4,17.4,13.4,89,74,56,30.42,30.11,8,2,11,0.00
2013-3-18,32.3,26.8,20.2,29.7,21.4,13.3,90,80,63,30.40,29.83,23,7,39,0.00
2013-3-19,34.3,28.9,23.5,31.6,25.4,19.8,92,86,73,30.00,29.82,20,4,23,0.00
2013-3-20,27.4,22.8,15.5,23.8,19.2,12.3,90,86,74,30.02,29.98,14,3,18,0.00
2013-3-21,25.6,20.5,14.0,21.5,16.3,10.9,89,84,67,29.99,29.92,14,3,17,0.00
2013-3-22,27.3,24.5,22.3,23.2,20.8,19.4,92,85,78,30.14,29.95,14,4,18,0.00
2013-3-23,34.0,28.4,23.9,25.3,22.8,20.3,92,80,65,30.19,30.11,11,3,14,0.02
2013-3-24,35.7,28.8,19.0,24.1,21.4,16.5,91,75,57,30.18,29.75,9,2,15,0.11
2013-3-25,35.8,31.5,27.8,31.7,27.0,22.9,92,84,70,29.87,29.68,10,2,14,0.17
2013-3-26,42.1,33.8,26.6,30.5,27.3,23.2,89,78,57,30.13,29.87,12,3,14,0.02
2013-3-27,36.9,32.7,29.5,29.8,27.5,23.5,91,81,69,30.22,30.11,12,4,18,0.01
2013-3-28,36.6,32.7,29.9,32.8,29.9,27.9,96,90,82,30.37,30.19,7,2,10,0.11
2013-3-29,45.3,37.5,30.7,32.6,28.4,23.7,90,71,47,30.36,30.29,13,2,17,0.00
2013-3-30,50.0,37.3,23.4,27.7,23.6,20.0,89,61,33,30.35,30.16,7,1,13,0.00
2013-3-31,50.5,42.2,35.0,41.0,32.0,22.1,91,69,47,30.16,29.75,14,4,22,0.09
2013-4-1,43.4,32.7,24.4,39.8,25.1,13.6,91,75,48,30.11,29.71,19,6,22,0.12
2013-4-2,31.6,26.4,21.3,23.5,16.8,12.0,88,68,48,30.30,30.11,18,6,20,0.01
2013-4-3,30.2,27.2,22.3,22.7,17.9,15.3,81,68,56,30.57,30.29,15,5,22,0.00
2013-4-4,53.7,34.9,18.0,19.6,14.1,7.8,87,51,16,30.51,30.08,12,2,17,0.00
2013-4-5,41.3,36.0,29.0,29.7,22.1,12.9,72,57,34,30.29,30.02,15,4,19,0.00
2013-4-6,51.4,37.7,21.5,21.1,17.1,11.4,87,50,20,30.43,30.14,13,3,17,0.00
2013-4-7,66.8,53.4,39.6,46.8,34.7,18.9,83,50,33,30.14,29.88,20,7,30,0.00
2013-4-8,67.5,51.6,31.1,51.2,39.8,28.5,92,67,38,30.18,29.93,15,3,24,0.02
2013-4-9,71.6,56.6,41.9,53.9,45.6,38.6,90,69,40,30.19,29.90,14,3,23,0.00
2013-4-10,65.9,50.2,42.3,61.2,48.1,40.4,94,92,75,30.04,29.86,17,1,28,1.23
2013-4-11,43.1,40.1,36.3,41.5,37.6,33.0,94,91,85,30.09,29.86,14,4,19,0.06
2013-4-12,52.4,44.8,37.1,50.2,42.2,33.3,93,90,83,29.91,29.61,18,6,20,0.53
2013-4-13,42.2,38.0,34.3,35.1,33.0,30.1,92,82,66,30.10,29.90,14,4,22,0.11
2013-4-14,46.2,40.0,33.1,35.5,32.2,29.5,89,74,59,30.26,30.10,11,3,18,0.03
2013-4-15,70.3,56.7,41.4,49.0,42.8,34.6,78,60,44,30.21,30.13,18,5,24,0.00
2013-4-16,66.7,55.0,47.5,59.4,50.1,44.7,94,84,69,30.29,30.07,29,5,29,0.35
2013-4-17,63.2,51.5,40.2,44.7,36.8,32.6,90,60,32,30.41,30.20,8,2,10,0.00
2013-4-18,77.4,66.1,55.2,60.8,53.0,36.4,76,63,48,30.22,29.78,23,8,28,0.00
2013-4-19,67.9,55.0,39.5,58.1,47.5,29.8,91,76,66,29.86,29.46,20,6,29,0.33
2013-4-20,39.5,36.4,33.0,30.3,29.2,27.2,87,75,66,29.93,29.85,19,6,20,0.00